Location: Bosmont
(49.7318°N, 3.8587°E)
Time: 00:40:09
(UTC+00:00)

YAOGAN 1 - Pass Details

Date: 08 February 2023
Orbit: 616 x 618 km, 97.8° (Epoch: 01 April)

Event Time Altitude Azimuth Distance (km) Brightness Sun altitude
Rises 17:52:45 0° 148° (SSE) 2,883 5.8 -10.4°
Reaches altitude 10° 17:54:59 10° 142° (SE) 1,982 4.9 -10.7°
Maximum altitude 17:59:06 46° 70° (ENE) 838 2.8 -11.4°
Drops below altitude 10° 18:03:15 10° 357° (N) 1,998 5.1 -12.0°
Sets 18:05:31 0° 352° (N) 2,909 6.0 -12.4°
